DW8835 La Escala ES current weather conditions

sailwx.info

Wind from 204 at 2 knots gusting 6

Air temperature 27.2° C
Dewpoint 15.9° C

Last reported at 2015-Jul-03 19:50 UTC.
Time now 2015-Jul-03 20:19 UTC

Location: N 42°07' E 003°08'.
View on Google Maps.

See reports from other nearby stations

  
Tides and Currents Weather Stations Pressure Air Temp Water Temp Dewpoint Dewpoint Depression Visibility Wind Speed Wind Dir Waves Ship Positions
date/time (UTC)wind fromknots sea level pressurealtimeterstation pressurevisibilityair tempwater tempwave heightnotes
2015-Jul-03 19:50 204 2 gusting 6 27.2
2015-Jul-03 19:40 172 4 gusting 7 27.8
2015-Jul-03 19:30 178 7 gusting 12 27.8
2015-Jul-03 19:20 155 6 gusting 11 27.8
2015-Jul-03 19:10 169 6 gusting 9 27.8
2015-Jul-03 19:00 175 5 gusting 9 28.3
2015-Jul-03 18:50 172 6 gusting 8 28.3
2015-Jul-03 18:41 163 3 gusting 10 28.3
2015-Jul-03 18:30 152 5 gusting 12 28.3
2015-Jul-03 18:20 187 7 gusting 19 28.3
2015-Jul-03 18:10 192 9 gusting 17 28.9
2015-Jul-03 18:00 197 7 gusting 19 28.9
2015-Jul-03 17:50 184 12 gusting 17 28.9
2015-Jul-03 17:40 192 9 gusting 16 29.4
2015-Jul-03 17:30 190 8 gusting 16 29.4
2015-Jul-03 17:20 153 10 gusting 17 29.4
2015-Jul-03 17:10 165 7 gusting 16 30.0
2015-Jul-03 17:00 177 10 gusting 19 30.0
2015-Jul-03 16:50 147 9 gusting 16 30.0
2015-Jul-03 16:40 140 7 gusting 19 30.0
2015-Jul-03 16:30 144 13 gusting 20 30.0
2015-Jul-03 16:20 151 11 gusting 19 30.6
2015-Jul-03 16:10 138 12 gusting 19 30.6
2015-Jul-03 16:00 150 11 gusting 19 31.1
2015-Jul-03 15:51 137 10 gusting 22 31.1
2015-Jul-03 15:40 171 14 gusting 24 31.1
2015-Jul-03 15:30 178 13 gusting 23 31.1
2015-Jul-03 15:20 173 13 gusting 25 31.1
2015-Jul-03 15:10 144 13 gusting 22 31.7
2015-Jul-03 15:00 184 13 gusting 21 31.7
2015-Jul-03 14:50 151 13 gusting 21 31.1
2015-Jul-03 14:40 165 11 gusting 24 31.7
2015-Jul-03 14:30 146 9 gusting 19 31.7
2015-Jul-03 14:20 194 9 gusting 18 31.7
2015-Jul-03 14:10 167 12 gusting 19 31.7
2015-Jul-03 14:00 124 9 gusting 19 31.7
2015-Jul-03 13:50 173 11 gusting 18 31.7
2015-Jul-03 13:40 172 10 gusting 19 32.2
2015-Jul-03 13:30 136 8 gusting 18 31.7
2015-Jul-03 13:20 135 7 gusting 19 31.7
2015-Jul-03 13:10 133 6 gusting 15 31.1
2015-Jul-03 13:00 145 7 gusting 16 31.1
2015-Jul-03 12:50 138 9 gusting 15 31.1
2015-Jul-03 12:40 105 6 gusting 11 31.7
2015-Jul-03 12:30 188 6 gusting 13 31.1
2015-Jul-03 12:20 137 6 gusting 13 31.1
2015-Jul-03 12:10 147 5 gusting 18 31.1
2015-Jul-03 12:00 186 7 gusting 16 31.1
2015-Jul-03 11:50 169 11 gusting 17 30.6
2015-Jul-03 11:40 170 6 gusting 16 30.6
2015-Jul-03 11:30 173 7 gusting 15 30.6
2015-Jul-03 11:20 192 10 gusting 19 30.0
2015-Jul-03 11:10 146 8 gusting 17 29.4
2015-Jul-03 11:00 152 7 gusting 16 30.0
2015-Jul-03 10:50 182 12 gusting 19 30.6
2015-Jul-03 10:40 153 10 gusting 20 30.0
2015-Jul-03 10:30 157 11 gusting 19 30.0
2015-Jul-03 10:20 150 10 gusting 17 29.4
2015-Jul-03 10:10 180 6 gusting 10 30.6
2015-Jul-03 10:00 159 10 gusting 16 30.6
2015-Jul-03 09:50 156 7 gusting 14 31.1
2015-Jul-03 09:40 171 10 gusting 16 31.1
2015-Jul-03 09:30 137 8 gusting 13 31.1
2015-Jul-03 09:20 146 6 gusting 9 30.6
2015-Jul-03 09:10 169 6 gusting 9 30.6
2015-Jul-03 09:00 167 5 gusting 11 31.1
2015-Jul-03 08:50 184 5 gusting 10 31.1
2015-Jul-03 08:40 168 6 gusting 13 31.1
2015-Jul-03 08:30 166 6 gusting 12 30.6
2015-Jul-03 08:20 194 5 gusting 13 30.6
2015-Jul-03 08:10 196 7 gusting 13 30.0
2015-Jul-03 08:00 152 6 gusting 11 29.4
2015-Jul-03 07:50 169 8 gusting 13 28.9
2015-Jul-03 07:40 184 4 gusting 8 28.3
2015-Jul-03 07:30 190 4 gusting 11 28.3
2015-Jul-03 07:20 144 6 gusting 11 27.8
2015-Jul-03 07:10 170 6 gusting 10 27.8
2015-Jul-03 07:00 174 4 gusting 7 26.7
2015-Jul-03 06:50 178 4 gusting 6 25.6
2015-Jul-03 06:40 174 3 gusting 6 25.0
2015-Jul-03 06:30 183 1 gusting 6 24.4
2015-Jul-03 06:20 186 3 gusting 6 23.9
2015-Jul-03 06:10 240 2 gusting 6 23.3
2015-Jul-03 06:00 185 2 gusting 5 22.8
2015-Jul-03 05:50 190 2 gusting 6 21.7
2015-Jul-03 05:40 184 3 gusting 6 21.1
2015-Jul-03 05:30 198 3 gusting 5 20.6
2015-Jul-03 05:20 171 2 gusting 6 20.6
2015-Jul-03 05:10 192 4 gusting 7 20.6
2015-Jul-03 05:00 192 3 gusting 8 20.6
2015-Jul-03 04:50 186 2 gusting 6 20.6
2015-Jul-03 04:40 193 2 gusting 6 20.6
2015-Jul-03 04:30 197 2 gusting 5 20.6
2015-Jul-03 04:20 236 2 gusting 4 21.1
2015-Jul-03 04:10 238 0 gusting 4 21.1
2015-Jul-03 04:00 230 1 gusting 3 21.1
2015-Jul-03 03:50 228 21.1
2015-Jul-03 03:40 228 0 gusting 2 21.1
2015-Jul-03 03:30 229 21.1
2015-Jul-03 03:20 229 1 gusting 2 21.7
2015-Jul-03 03:10 228 2 gusting 4 21.7
2015-Jul-03 03:00 227 1 gusting 4 21.7
2015-Jul-03 02:50 227 1 gusting 4 21.7
2015-Jul-03 02:40 239 2 gusting 5 21.7
2015-Jul-03 02:30 235 3 gusting 5 22.2
2015-Jul-03 02:20 221 2 gusting 6 22.2
2015-Jul-03 02:10 211 3 gusting 5 22.2
2015-Jul-03 02:00 236 2 gusting 6 22.2
2015-Jul-03 01:50 208 2 gusting 6 22.2
2015-Jul-03 01:40 198 3 gusting 6 22.2
2015-Jul-03 01:30 201 3 gusting 5 22.2
2015-Jul-03 01:20 202 2 gusting 6 22.2
2015-Jul-03 01:10 178 5 gusting 7 22.2
2015-Jul-03 01:00 217 2 gusting 5 22.2
2015-Jul-03 00:50 242 0 gusting 2 22.8
2015-Jul-03 00:40 244 22.8
2015-Jul-03 00:30 244 22.8
2015-Jul-03 00:20 239 1 gusting 4 22.8
2015-Jul-03 00:10 300 1 gusting 3 22.8
2015-Jul-03 00:00 302 1 gusting 4 22.8
2015-Jul-02 23:50 355 22.8
2015-Jul-02 23:40 355 23.3
2015-Jul-02 23:30 355 0 gusting 2 23.3
2015-Jul-02 23:20 355 23.3
2015-Jul-02 23:10 355 23.9
2015-Jul-02 23:00 355 0 gusting 1 23.9
2015-Jul-02 22:50 355 0 gusting 3 23.9
2015-Jul-02 22:40 355 0 gusting 3 24.4
2015-Jul-02 22:30 355 2 gusting 3 24.4
2015-Jul-02 22:20 355 1 gusting 2 24.4
2015-Jul-02 22:10 355 25.0
2015-Jul-02 22:00 355 0 gusting 4 25.0
2015-Jul-02 21:50 344 1 gusting 4 25.6
2015-Jul-02 21:40 024 25.6
2015-Jul-02 21:30 024 25.6
2015-Jul-02 21:20 024 0 gusting 2 25.6
2015-Jul-02 21:10 024 1 gusting 3 25.6
2015-Jul-02 21:00 339 3 gusting 5 25.6
2015-Jul-02 20:50 333 0 gusting 2 25.6
2015-Jul-02 20:40 301 1 gusting 5 25.6
2015-Jul-02 20:30 193 1 gusting 4 25.6
2015-Jul-02 20:20 350 2 gusting 7 26.1
2015-Jul-02 20:10 015 5 gusting 11 26.7
2015-Jul-02 20:00 190 0 gusting 4 27.2
2015-Jul-02 19:50 142 1 gusting 7 27.2
2015-Jul-02 19:40 148 4 gusting 7 26.7
2015-Jul-02 19:30 184 3 gusting 7 27.2
2015-Jul-02 19:20 161 6 gusting 11 26.7
2015-Jul-02 19:10 147 6 gusting 9 27.2
2015-Jul-02 19:00 188 5 gusting 8 27.2
2015-Jul-02 18:50 182 5 gusting 10 27.8
2015-Jul-02 18:40 169 6 gusting 9 27.8
2015-Jul-02 18:30 184 3 gusting 6 27.8
2015-Jul-02 18:20 194 3 gusting 7 27.8
2015-Jul-02 18:10 181 3 gusting 10 27.8
2015-Jul-02 18:00 185 4 gusting 9 27.8
2015-Jul-02 17:50 179 6 gusting 11 28.3
2015-Jul-02 17:40 188 3 gusting 11 28.3
2015-Jul-02 17:30 185 4 gusting 12 28.3
2015-Jul-02 17:20 155 4 gusting 9 28.3
2015-Jul-02 17:10 148 7 gusting 16 28.9
2015-Jul-02 17:00 157 7 gusting 15 28.9
2015-Jul-02 16:50 180 10 gusting 15 29.4
2015-Jul-02 16:40 169 7 gusting 15 29.4
2015-Jul-02 16:30 161 10 gusting 18 29.4
2015-Jul-02 16:20 174 12 gusting 19 29.4
2015-Jul-02 16:10 175 12 gusting 18 29.4
2015-Jul-02 16:00 156 10 gusting 19 30.0
2015-Jul-02 15:50 163 6 gusting 17 30.0
2015-Jul-02 15:40 144 13 gusting 19 30.0
2015-Jul-02 15:30 165 11 gusting 20 30.0
2015-Jul-02 15:20 175 10 gusting 19 30.6
2015-Jul-02 15:10 138 11 gusting 17 30.6
2015-Jul-02 15:00 142 10 gusting 15 31.1
2015-Jul-02 14:50 172 9 gusting 16 31.1
2015-Jul-02 14:40 172 7 gusting 13 31.1
2015-Jul-02 14:30 163 9 gusting 14 31.1
2015-Jul-02 14:20 141 9 gusting 16 31.1
2015-Jul-02 14:10 144 6 gusting 13 31.1
2015-Jul-02 14:00 142 6 gusting 17 31.7
2015-Jul-02 13:50 186 12 gusting 17 31.1
2015-Jul-02 13:40 169 8 gusting 17 31.1
2015-Jul-02 13:30 124 6 gusting 14 31.1
2015-Jul-02 13:20 145 8 gusting 13 31.7
2015-Jul-02 13:10 186 7 gusting 15 31.7
2015-Jul-02 13:00 159 6 gusting 16 31.7
2015-Jul-02 12:50 192 10 gusting 15 31.1
2015-Jul-02 12:40 156 7 gusting 17 31.1
2015-Jul-02 12:30 154 9 gusting 17 30.6
2015-Jul-02 12:20 130 9 gusting 13 31.1
2015-Jul-02 12:10 116 10 gusting 16 31.1
2015-Jul-02 12:00 166 8 gusting 17 31.1
2015-Jul-02 11:50 134 10 gusting 17 31.1
2015-Jul-02 11:40 132 8 gusting 13 31.1
2015-Jul-02 11:30 177 9 gusting 16 31.7
2015-Jul-02 11:20 134 9 gusting 13 31.1
2015-Jul-02 11:10 140 10 gusting 20 31.1
2015-Jul-02 11:00 154 10 gusting 16 31.1
2015-Jul-02 10:50 121 9 gusting 16 31.1
2015-Jul-02 10:40 170 7 gusting 14 31.1
2015-Jul-02 10:30 171 8 gusting 13 31.1
2015-Jul-02 10:20 191 8 gusting 18 31.1
2015-Jul-02 10:10 160 7 gusting 16 31.1
2015-Jul-02 10:00 155 7 gusting 12 30.6
2015-Jul-02 09:50 136 7 gusting 12 30.6
2015-Jul-02 09:40 169 7 gusting 10 30.6
2015-Jul-02 09:30 199 5 gusting 10 30.0
2015-Jul-02 09:20 175 6 gusting 10 30.0
2015-Jul-02 09:10 152 6 gusting 10 29.4
2015-Jul-02 09:00 139 6 gusting 11 29.4
2015-Jul-02 08:50 117 1 gusting 4 27.8
2015-Jul-02 08:40 128 1 gusting 3 27.2
2015-Jul-02 08:30 095 1 gusting 4 26.7
2015-Jul-02 08:20 077 2 gusting 4 25.6
2015-Jul-02 08:10 347 2 gusting 3 26.1
2015-Jul-02 08:00 341 0 gusting 2 25.6
2015-Jul-02 07:50 341 0 gusting 2 25.6
2015-Jul-02 07:40 341 1 gusting 2 25.0
2015-Jul-02 07:30 340 0 gusting 2 24.4
2015-Jul-02 07:20 244 24.4
2015-Jul-02 07:10 242 23.9
2015-Jul-02 07:00 242 23.3
2015-Jul-02 06:50 242 22.2
2015-Jul-02 06:40 242 0 gusting 2 21.7
2015-Jul-02 06:30 221 2 gusting 4 21.7
2015-Jul-02 06:20 211 1 gusting 5 21.1
2015-Jul-02 06:10 232 0 gusting 4 20.6
2015-Jul-02 06:00 200 2 gusting 4 20.0
2015-Jul-02 05:50 190 3 gusting 5 19.4
2015-Jul-02 05:40 207 2 gusting 6 19.4
2015-Jul-02 05:30 188 1 gusting 6 18.9
2015-Jul-02 05:20 197 2 gusting 6 18.9
2015-Jul-02 05:10 195 1 gusting 6 18.9
2015-Jul-02 05:00 197 5 gusting 6 18.9
2015-Jul-02 04:50 198 3 gusting 6 18.9
2015-Jul-02 04:40 188 2 gusting 5 18.9
2015-Jul-02 04:30 184 2 gusting 5 19.4
2015-Jul-02 04:20 180 2 gusting 4 19.4
2015-Jul-02 04:10 177 0 gusting 3 19.4
2015-Jul-02 04:00 173 2 gusting 4 19.4
2015-Jul-02 03:50 112 0 gusting 2 20.0
2015-Jul-02 03:40 111 1 gusting 2 20.0
2015-Jul-02 03:30 111 20.0
2015-Jul-02 03:20 095 0 gusting 2 20.0
2015-Jul-02 03:10 094 20.0
2015-Jul-02 03:00 094 0 gusting 1 20.0
2015-Jul-02 02:50 094 0 gusting 1 20.0
2015-Jul-02 02:40 094 0 gusting 4 20.6
2015-Jul-02 02:30 077 0 gusting 3 21.1
2015-Jul-02 02:20 331 0 gusting 3 21.1
2015-Jul-02 02:10 331 0 gusting 2 21.7
2015-Jul-02 02:00 331 21.7
2015-Jul-02 01:50 331 21.7
2015-Jul-02 01:40 331 21.7
2015-Jul-02 01:30 331 22.2
2015-Jul-02 01:20 331 22.2
2015-Jul-02 01:10 331 22.2
2015-Jul-02 01:00 331 22.2
2015-Jul-02 00:50 331 22.8
2015-Jul-02 00:40 331 22.8
2015-Jul-02 00:30 331 22.8
2015-Jul-02 00:20 331 22.8
2015-Jul-02 00:10 331 22.8
2015-Jul-02 00:00 331 0 gusting 2 22.8
2015-Jul-01 23:50 331 1 gusting 1 23.3
2015-Jul-01 23:40 328 1 gusting 3 23.3
2015-Jul-01 23:30 167 23.9
2015-Jul-01 23:20 166 0 gusting 2 23.9
2015-Jul-01 23:10 165 0 gusting 3 23.9
2015-Jul-01 23:00 198 0 gusting 3 23.9
2015-Jul-01 22:50 196 0 gusting 5 23.9
2015-Jul-01 22:40 197 2 gusting 5 23.9
2015-Jul-01 22:30 162 1 gusting 6 23.9
2015-Jul-01 22:20 138 3 gusting 5 23.9
2015-Jul-01 22:10 166 2 gusting 5 24.4
2015-Jul-01 22:00 157 3 gusting 6 24.4
2015-Jul-01 21:50 163 4 gusting 6 24.4
2015-Jul-01 21:40 140 4 gusting 6 24.4
2015-Jul-01 21:30 157 4 gusting 6 24.4
2015-Jul-01 21:20 136 5 gusting 7 24.4
2015-Jul-01 21:10 123 4 gusting 6 24.4
2015-Jul-01 21:00 148 2 gusting 6 24.4
2015-Jul-01 20:50 138 3 gusting 7 25.0
2015-Jul-01 20:40 158 4 gusting 7 25.0
2015-Jul-01 20:30 144 5 gusting 8 25.0
2015-Jul-01 20:20 139 4 gusting 9 25.0
2015-Jul-01 20:10 154 4 gusting 6 25.0
2015-Jul-01 20:00 144 0 gusting 3 25.0